Regional Weather Roundup
Issued by NWS Charleston, SC

Current Version | Previous Version | Text Only | Print | Product List | Glossary Off
Versions: 1 2 3 4 5 6 7 8 9 10 11 12 13 14 15 16 17 18 19 20 21 22 23 24 25 26 27 28 29 30 31 32 33 34 35 36 37 38 39 40 41 42 43 44 45 46 47 48 49 50

000
ASUS42 KCHS 182012
RWRCHS

REGIONAL WEATHER ROUNDUP
NATIONAL WEATHER SERVICE CHARLESTON SC
300 PM EST WED JAN 18 2017

NOTE: "FAIR" INDICATES FEW OR NO CLOUDS BELOW 12,000 FEET WITH NO
SIGNIFICANT WEATHER AND/OR OBSTRUCTIONS TO VISIBILITY.

NOT ALL STATIONS ARE QUALITY CONTROLLED. USE DATA WITH CAUTION...
ESPECIALLY DEWPOINT OBSERVATIONS.

SCZ027-030-031-034>040-042>050-182100-
...SOUTHEAST SOUTH CAROLINA...

CITY           SKY/WX    TMP DP  RH WIND       PRES   REMARKS
N CHARLESTON   PTSUNNY   78  58  49 W17G25    29.97F
WATERFRONT PRK   N/A     76  62  61 W7G16     29.98F
MOUNT PLEASANT FAIR      79  61  53 W12G22    29.97F
JOHNS ISLAND   MOCLDY    77  61  57 W16       30.00S
PINOPOLIS        N/A    N/A N/A N/A W16       29.88F
MONCKS CORNER  FAIR      77  57  50 W6        29.97F
SUMMERVILLE    FAIR      79  61  53 W12       29.99F
BEAUFORT MCAS  PTSUNNY   79  60  52 W9        30.01F
BEAUFORT ARPT  FAIR      77  61  57 W13       30.01F
HILTON HEAD IS SUNNY     79  61  53 W12       30.02
WALTERBORO     PTCLDY    77  59  53 W15       30.01F
ALLENDALE      MOCLDY    77  61  57 VRB6G17   30.00F

...SOUTHERN MIDLANDS AND PEE DEE...

CITY           SKY/WX    TMP DP  RH WIND       PRES   REMARKS
GEORGETOWN     FAIR      77  57  50 W17G28    29.94F
KINGSTREE      FAIR      79  50  36 W13G24    29.95R
ORANGEBURG     MOSUNNY   79  58  48 W16G22    29.98F
BARNWELL       FAIR      79  61  53 W8G15     30.00F
AIKEN          FAIR      77  52  41 W13G21    30.03S
MANNING        FAIR      79  36  21 W10G25    29.96S
COLUMBIA       PTSUNNY   79  49  34 W17G25    29.96S
SUMTER         SUNNY     79  50  36 W13G22    29.94S
FLORENCE       MOSUNNY   77  54  44 NW15G23   29.95S
MYRTLE BEACH   PTSUNNY   79  57  47 NW12G23   29.94S
N MYRTLE BEACH MOSUNNY   75  58  55 NW10      29.93S

$$

GAZ063-065-086>088-099>101-113>116-118-119-134>141-150-182100-
...SOUTHEAST GEORGIA...

CITY           SKY/WX    TMP DP  RH WIND       PRES   REMARKS
SAVANNAH ARPT  MOSUNNY   77  58  51 W20G25    30.03F
HUNTER AAF     SUNNY     77  61  57 W16       30.02F
FORT STEWART   SUNNY     75  60  60 SW8       30.04F
STATESBORO     SUNNY     78  62  58 W13G21    30.03F
SYLVANIA       PTCLDY   N/A N/A N/A W14G21    30.04S
CLAXTON        FAIR      77  73  87 SW12G22   30.05F

...CSRA...CENTRAL AND FAR SOUTHEAST GEORGIA...

CITY           SKY/WX    TMP DP  RH WIND       PRES   REMARKS
THOMSON        SUNNY     78  58  50 NW9G20    30.07S
AUGUSTA-BUSH   MOSUNNY   79  57  46 NW9       30.00F
AUGUSTA-DANIEL MOSUNNY   79  53  40 W13G23    30.01F
SWAINSBORO     FAIR      73  63  68 MISG      30.06F
VIDALIA        PTSUNNY   79  64  61 W9G16     30.07F
EASTMAN        FAIR      77  45  31 W9        30.11S
HAZLEHURST     FAIR      78  61  55 W6        30.08S
ALMA           MOSUNNY   76  60  57 W12G21    30.08F
WAYCROSS       MOSUNNY   80  65  61 W12       30.09F
JESUP          CLOUDY    77  57  50 NW10G16   30.08F
BAXLEY         CLOUDY    77  63  61 NW12G18   30.08F
BRUNSWICK      MOSUNNY   77  64  65 NW10      30.08F
SAINT SIMONS   MOSUNNY   76  60  57 W10       30.07F

$$

SCZ027-028-034-036>038-045-046-048>050-GAZ119-141-182100-
...LAKE AND SUPPLEMENTAL COASTAL OBSERVATIONS...

STATION/POSITION TIME  TEMP    WIND        PRES    WAVE   SWELL
                       AIR SEA DIR/SP/G            HT/PER HT/PER/DIR
                 (UTC) (F)     (DEG/KT/KT) (MB)    (FT/S) (FT/S/D)
WINYAH BAY       NOT AVBL
LAKE MURRAY      1920   74     270/ 12/ 21 1014.2
ACE BASIN NERRS  NOT AVBL
FORT PULASKI     1948          270/ 12/ 18   N/A
SAPELO ISLAND    NOT AVBL

$$

ANZ835-935-AMZ111-154-330-350-352-354-370-450-454-472-182100-
...C-MAN AND BUOY OBSERVATIONS...

STATION/POSITION TIME  TEMP    WIND        PRES    WAVE   SWELL
                       AIR SEA DIR/SP/G            HT/PER HT/PER/DIR
                 (UTC) (F)     (DEG/KT/KT) (MB)    (FT/S) (FT/S/D)
BUOY 41004       1850   67 72  250/ 21/ 25 1015.2    4/ 5   2/140/ 9
BUOY 41008       1850   64 61  290/  4/  8 1018.6    1/ 9   2/130/ 9
FOLLY BEACH CMAN 1900   62     220/ 17/ 19 1016.3F
CAPERS NEARSHORE NOT AVBL
FRIPP NEARSHORE  1908   62 58  240/ 12/ 14 1016.6F


STATION/POSITION TIME  TEMP    WIND        PRES    WAVE   SWELL
                       AIR SEA DIR/SP/G            HT/PER HT/PER/DIR
                 (UTC) (F)     (DEG/KT/KT) (MB)    (FT/S) (FT/S/D)
5E ST. MARYS GA  1930      63                N/A     1/11
FRYING PAN BUOY  1950   69 72  250/ 21/ 27 1013.1F   5/ 6
BUOY 41025       1950   63 72  320/ 21/ 31 1010.7R   7/ 7   3/330/17
CAPE LOOKOUT NC  1900   62     260/ 13/ 16 1011.2F
BUOY 41002       1850   72 72  250/ 19/ 23 1014.5    7/ 6
BUOY 41010       NOT AVBL
ST AUGUSTINE FL  2000   77 62  250/  7/ 10 1019.7F


$$




USA.gov is the U.S. government's official web portal to all federal, state and local government web resources and services.